SJ-6D

Last updated on Sat Apr 13 2024 01:03:19 GMT+0100 (British Summer Time)

1 29506U 06046B 24103.61598078 .00002963 00000+0 26318-3 0 9994 2 29506 97.7452 129.1410 0003309 129.9376 230.2136 14.96908440951511
UTC large
Height (km)
Speed (km/s)
/
Latitude / Longitude
Inclination (degrees)
Orbital Period (minutes)
Azimuth
Elevation
Range (km)
Doppler Factor

Next 0 passes for location: London (51.5072 / 0.1276)

Sorry there are no passes over London.